QPF
0.00 0.01 0.02 0.02 0.01 0.02 0.03 0.03 0.03 0.04 0.05 0.05 0.04 0.04 0.04 0.05 0.04 0.05 0.05 0.04 0.03 0.03 0.03 0.03 0.02 0.01 0.01 0.01 0.01 0.01 0.01 0.00 0.01 0.01 0.01 0.00 0.00 0.00 0.01 0.01 0.02 0.02 0.02
0.00 0.01 0.01 0.02 0.02 0.02 0.02 0.03 0.02 0.04 0.05 0.05 0.05 0.04 0.05 0.05 0.04 0.04 0.05 0.04 0.03 0.03 0.04 0.03 0.04 0.02 0.01 0.01 0.01 0.01 0.00 0.00 0.00 0.00 0.00 0.00 0.00 0.00 0.00 0.01 0.02 0.01 0.02
0.00 0.00 0.01 0.02 0.03 0.02 0.02 0.03 0.03 0.04 0.06 0.05 0.04 0.04 0.05 0.06 0.05 0.05 0.05 0.03 0.02 0.04 0.05 0.03 0.03 0.02 0.01 0.01 0.01 0.01 0.00 0.00 0.00 0.00 0.00 0.00 0.00 0.00 0.00 0.01 0.01 0.01 0.01
0.00 0.00 0.01 0.02 0.03 0.03 0.03 0.03 0.03 0.04 0.04 0.04 0.04 0.03 0.05 0.07 0.06 0.04 0.04 0.03 0.03 0.04 0.06 0.04 0.03 0.02 0.01 0.01 0.01 0.00 0.00 0.00 0.00 0.00 0.01 0.01 0.01 0.01 0.01 0.02 0.01 0.01 0.02
0.01 0.01 0.01 0.03 0.04 0.04 0.04 0.04 0.03 0.03 0.03 0.03 0.04 0.04 0.05 0.06 0.06 0.05 0.04 0.04 0.04 0.04 0.05 0.04 0.03 0.02 0.01 0.01 0.00 0.00 0.00 0.00 0.00 0.00 0.01 0.01 0.01 0.01 0.02 0.02 0.01 0.01 0.01
0.00 0.01 0.02 0.04 0.04 0.04 0.05 0.05 0.05 0.05 0.04 0.04 0.04 0.05 0.05 0.05 0.06 0.06 0.04 0.05 0.05 0.04 0.04 0.04 0.03 0.02 0.02 0.01 0.00 0.00 0.00 0.00 0.00 0.01 0.01 0.02 0.02 0.02 0.02 0.02 0.01 0.01 0.01
0.00 0.01 0.02 0.04 0.05 0.05 0.05 0.05 0.07 0.07 0.07 0.06 0.05 0.05 0.05 0.06 0.06 0.06 0.06 0.05 0.05 0.05 0.05 0.04 0.03 0.03 0.02 0.01 0.01 0.00 0.00 0.00 0.00 0.01 0.02 0.03 0.03 0.03 0.03 0.01 0.01 0.01 0.01
0.00 0.01 0.02 0.04 0.04 0.05 0.05 0.05 0.05 0.08 0.08 0.07 0.06 0.05 0.05 0.05 0.06 0.06 0.06 0.05 0.05 0.05 0.05 0.05 0.04 0.03 0.02 0.02 0.01 0.00 0.00 0.00 0.00 0.01 0.02 0.03 0.03 0.03 0.03 0.02 0.02 0.02 0.02
0.01 0.01 0.02 0.03 0.04 0.05 0.05 0.05 0.05 0.05 0.06 0.07 0.07 0.06 0.06 0.06 0.05 0.06 0.06 0.07 0.07 0.06 0.06 0.06 0.06 0.04 0.03 0.03 0.02 0.01 0.00 0.00 0.01 0.01 0.01 0.02 0.02 0.03 0.03 0.02 0.02 0.02 0.02
0.01 0.01 0.01 0.03 0.05 0.05 0.06 0.05 0.04 0.05 0.05 0.06 0.07 0.07 0.06 0.05 0.05 0.05 0.06 0.07 0.07 0.07 0.05 0.05 0.05 0.04 0.02 0.02 0.02 0.01 0.00 0.01 0.01 0.01 0.00 0.01 0.01 0.03 0.03 0.03 0.03 0.02 0.02
0.01 0.01 0.01 0.02 0.03 0.04 0.06 0.06 0.06 0.07 0.07 0.06 0.05 0.06 0.08 0.07 0.07 0.08 0.08 0.08 0.06 0.05 0.05 0.04 0.05 0.03 0.02 0.02 0.01 0.00 0.00 0.01 0.01 0.00 0.00 0.01 0.02 0.03 0.03 0.02 0.03 0.03 0.02
0.01 0.01 0.01 0.01 0.02 0.03 0.04 0.04 0.08 0.11 0.08 0.07 0.05 0.05 0.06 0.06 0.07 0.08 0.08 0.08 0.07 0.05 0.05 0.05 0.06 0.04 0.03 0.02 0.02 0.01 0.01 0.01 0.01 0.01 0.01 0.01 0.02 0.03 0.02 0.02 0.03 0.03 0.02
0.01 0.01 0.01 0.01 0.02 0.03 0.04 0.05 0.05 0.08 0.10 0.10 0.09 0.07 0.06 0.06 0.06 0.06 0.06 0.06 0.06 0.06 0.06 0.06 0.05 0.04 0.03 0.02 0.02 0.01 0.01 0.01 0.01 0.01 0.01 0.01 0.01 0.02 0.02 0.02 0.03 0.03 0.03
0.01 0.01 0.02 0.01 0.01 0.02 0.03 0.06 0.05 0.06 0.08 0.12 0.12 0.12 0.09 0.07 0.06 0.06 0.05 0.04 0.05 0.06 0.06 0.06 0.05 0.04 0.03 0.02 0.02 0.01 0.01 0.00 0.01 0.01 0.01 0.01 0.01 0.02 0.02 0.02 0.02 0.03 0.03
0.01 0.02 0.02 0.01 0.01 0.01 0.02 0.04 0.04 0.04 0.05 0.09 0.12 0.14 0.13 0.10 0.07 0.06 0.05 0.04 0.04 0.06 0.07 0.07 0.06 0.06 0.05 0.04 0.02 0.02 0.01 0.00 0.00 0.00 0.01 0.01 0.01 0.02 0.02 0.02 0.02 0.03 0.03
0.02 0.02 0.04 0.03 0.01 0.02 0.02 0.02 0.03 0.04 0.04 0.05 0.09 0.12 0.15 0.14 0.11 0.09 0.06 0.04 0.04 0.06 0.09 0.09 0.07 0.06 0.06 0.06 0.04 0.03 0.02 0.01 0.00 0.00 0.00 0.01 0.02 0.02 0.01 0.02 0.02 0.03 0.03
0.02 0.03 0.05 0.05 0.02 0.02 0.03 0.02 0.02 0.03 0.05 0.04 0.06 0.10 0.13 0.14 0.12 0.12 0.10 0.07 0.05 0.06 0.09 0.10 0.09 0.07 0.05 0.04 0.04 0.03 0.03 0.02 0.01 0.00 0.00 0.01 0.01 0.01 0.01 0.01 0.02 0.03 0.03
0.02 0.03 0.04 0.04 0.02 0.02 0.03 0.04 0.03 0.03 0.05 0.06 0.05 0.07 0.10 0.13 0.13 0.12 0.11 0.12 0.09 0.08 0.09 0.09 0.11 0.09 0.05 0.03 0.03 0.04 0.04 0.03 0.03 0.01 0.01 0.01 0.01 0.01 0.01 0.01 0.01 0.02 0.02
0.02 0.04 0.05 0.05 0.03 0.02 0.03 0.04 0.05 0.03 0.03 0.04 0.05 0.05 0.08 0.10 0.10 0.11 0.11 0.11 0.10 0.09 0.09 0.09 0.10 0.09 0.05 0.04 0.03 0.02 0.02 0.03 0.03 0.03 0.02 0.01 0.01 0.01 0.01 0.01 0.01 0.01 0.01
0.02 0.05 0.06 0.06 0.04 0.04 0.04 0.04 0.04 0.04 0.03 0.03 0.03 0.03 0.06 0.07 0.07 0.07 0.09 0.10 0.10 0.09 0.08 0.09 0.09 0.09 0.06 0.04 0.04 0.04 0.03 0.03 0.03 0.03 0.02 0.01 0.01 0.01 0.01 0.01 0.01 0.01 0.01
0.01 0.04 0.06 0.06 0.06 0.05 0.03 0.03 0.03 0.03 0.03 0.03 0.03 0.03 0.05 0.06 0.06 0.05 0.05 0.08 0.07 0.06 0.07 0.08 0.09 0.09 0.07 0.04 0.03 0.03 0.04 0.04 0.03 0.03 0.02 0.02 0.01 0.01 0.01 0.01 0.00 0.00 0.01
0.01 0.02 0.04 0.05 0.05 0.04 0.03 0.02 0.03 0.02 0.02 0.03 0.04 0.04 0.04 0.06 0.05 0.05 0.04 0.05 0.05 0.05 0.06 0.07 0.09 0.10 0.08 0.04 0.03 0.03 0.03 0.04 0.03 0.02 0.02 0.02 0.02 0.02 0.01 0.01 0.00 0.01 0.01
0.01 0.01 0.03 0.03 0.03 0.03 0.02 0.02 0.02 0.02 0.02 0.02 0.03 0.04 0.04 0.05 0.05 0.04 0.04 0.04 0.04 0.05 0.05 0.06 0.08 0.08 0.07 0.04 0.02 0.02 0.03 0.03 0.03 0.03 0.02 0.03 0.03 0.02 0.02 0.01 0.01 0.01 0.01
0.01 0.01 0.02 0.03 0.02 0.02 0.02 0.02 0.02 0.01 0.01 0.02 0.03 0.04 0.04 0.04 0.06 0.05 0.05 0.04 0.03 0.04 0.04 0.05 0.06 0.07 0.07 0.06 0.02 0.02 0.02 0.02 0.02 0.02 0.03 0.03 0.03 0.03 0.02 0.01 0.02 0.01 0.01
0.00 0.01 0.02 0.03 0.03 0.02 0.02 0.02 0.02 0.01 0.02 0.03 0.03 0.03 0.04 0.04 0.05 0.06 0.05 0.04 0.04 0.04 0.04 0.04 0.05 0.05 0.06 0.06 0.04 0.02 0.02 0.01 0.01 0.01 0.02 0.02 0.03 0.03 0.02 0.01 0.01 0.02 0.02
0.01 0.01 0.02 0.03 0.03 0.03 0.02 0.03 0.02 0.01 0.02 0.03 0.03 0.03 0.04 0.04 0.05 0.06 0.07 0.05 0.05 0.06 0.05 0.05 0.05 0.05 0.04 0.04 0.03 0.02 0.01 0.01 0.01 0.01 0.01 0.02 0.02 0.02 0.01 0.01 0.01 0.01 0.02
MSLP
1017.20 1016.90 1016.61 1016.39 1016.27 1016.22 1016.20 1016.15 1016.04 1015.83 1015.51 1015.15 1014.77 1014.46 1014.25 1014.17 1014.20 1014.30 1014.44 1014.56 1014.65 1014.68 1014.69 1014.69 1014.71 1014.78 1014.90 1015.05 1015.22 1015.39 1015.53 1015.64 1015.74 1015.85 1015.97 1016.12 1016.30 1016.50 1016.69 1016.88 1017.03 1017.15 1017.24
1017.17 1016.90 1016.65 1016.47 1016.38 1016.34 1016.32 1016.27 1016.12 1015.88 1015.54 1015.15 1014.78 1014.48 1014.30 1014.25 1014.31 1014.44 1014.59 1014.72 1014.79 1014.81 1014.80 1014.79 1014.81 1014.88 1015.00 1015.16 1015.34 1015.51 1015.66 1015.78 1015.90 1016.01 1016.15 1016.32 1016.52 1016.74 1016.95 1017.15 1017.31 1017.44 1017.54
1017.22 1016.97 1016.75 1016.59 1016.49 1016.45 1016.41 1016.32 1016.15 1015.88 1015.53 1015.14 1014.78 1014.51 1014.35 1014.32 1014.39 1014.52 1014.66 1014.76 1014.81 1014.81 1014.78 1014.76 1014.78 1014.86 1014.99 1015.17 1015.37 1015.56 1015.72 1015.86 1015.99 1016.12 1016.28 1016.47 1016.70 1016.94 1017.18 1017.39 1017.56 1017.69 1017.80
1017.28 1017.04 1016.83 1016.66 1016.56 1016.49 1016.42 1016.31 1016.11 1015.83 1015.49 1015.12 1014.78 1014.53 1014.39 1014.36 1014.42 1014.52 1014.62 1014.68 1014.70 1014.67 1014.63 1014.61 1014.64 1014.74 1014.91 1015.12 1015.34 1015.55 1015.74 1015.90 1016.04 1016.20 1016.38 1016.59 1016.84 1017.11 1017.36 1017.59 1017.77 1017.91 1018.02
1017.27 1017.05 1016.83 1016.66 1016.54 1016.45 1016.36 1016.23 1016.03 1015.75 1015.42 1015.08 1014.77 1014.54 1014.40 1014.36 1014.38 1014.44 1014.49 1014.51 1014.48 1014.43 1014.39 1014.39 1014.45 1014.60 1014.81 1015.05 1015.31 1015.55 1015.75 1015.93 1016.09 1016.26 1016.46 1016.69 1016.96 1017.23 1017.51 1017.74 1017.93 1018.08 1018.20
1017.19 1016.97 1016.75 1016.57 1016.44 1016.34 1016.24 1016.10 1015.91 1015.66 1015.36 1015.04 1014.76 1014.54 1014.39 1014.32 1014.31 1014.31 1014.30 1014.27 1014.21 1014.15 1014.13 1014.16 1014.27 1014.47 1014.73 1015.02 1015.31 1015.57 1015.79 1015.98 1016.14 1016.32 1016.52 1016.76 1017.04 1017.33 1017.61 1017.86 1018.06 1018.22 1018.34
1017.04 1016.82 1016.60 1016.42 1016.29 1016.20 1016.10 1015.98 1015.81 1015.58 1015.30 1015.02 1014.76 1014.54 1014.39 1014.29 1014.22 1014.17 1014.11 1014.04 1013.96 1013.91 1013.90 1013.97 1014.14 1014.39 1014.70 1015.03 1015.35 1015.63 1015.86 1016.04 1016.20 1016.37 1016.57 1016.82 1017.10 1017.39 1017.68 1017.94 1018.16 1018.32 1018.46
1016.89 1016.66 1016.45 1016.28 1016.16 1016.07 1015.99 1015.88 1015.73 1015.53 1015.28 1015.02 1014.78 1014.57 1014.40 1014.27 1014.17 1014.07 1013.97 1013.86 1013.77 1013.72 1013.74 1013.86 1014.07 1014.36 1014.71 1015.07 1015.40 1015.69 1015.91 1016.09 1016.24 1016.41 1016.60 1016.85 1017.13 1017.43 1017.73 1018.00 1018.23 1018.42 1018.57
1016.76 1016.53 1016.33 1016.18 1016.07 1016.00 1015.93 1015.84 1015.70 1015.51 1015.29 1015.05 1014.81 1014.60 1014.43 1014.28 1014.15 1014.02 1013.89 1013.76 1013.66 1013.62 1013.65 1013.79 1014.02 1014.34 1014.71 1015.08 1015.41 1015.70 1015.91 1016.09 1016.24 1016.40 1016.59 1016.84 1017.13 1017.45 1017.76 1018.06 1018.31 1018.52 1018.70
1016.70 1016.47 1016.29 1016.15 1016.06 1015.99 1015.93 1015.83 1015.69 1015.51 1015.29 1015.06 1014.83 1014.63 1014.46 1014.30 1014.16 1014.01 1013.86 1013.71 1013.60 1013.54 1013.57 1013.71 1013.94 1014.25 1014.61 1014.98 1015.31 1015.59 1015.81 1015.99 1016.15 1016.33 1016.54 1016.80 1017.11 1017.45 1017.79 1018.11 1018.39 1018.63 1018.84
1016.68 1016.47 1016.30 1016.18 1016.09 1016.03 1015.95 1015.84 1015.68 1015.48 1015.25 1015.02 1014.80 1014.61 1014.44 1014.30 1014.15 1014.00 1013.84 1013.68 1013.54 1013.46 1013.46 1013.56 1013.76 1014.04 1014.37 1014.72 1015.05 1015.34 1015.58 1015.78 1015.98 1016.18 1016.43 1016.73 1017.07 1017.44 1017.81 1018.16 1018.48 1018.76 1019.01
1016.69 1016.50 1016.34 1016.23 1016.14 1016.06 1015.95 1015.80 1015.61 1015.38 1015.13 1014.89 1014.68 1014.50 1014.35 1014.22 1014.09 1013.95 1013.78 1013.60 1013.43 1013.31 1013.25 1013.29 1013.43 1013.66 1013.95 1014.28 1014.61 1014.92 1015.20 1015.46 1015.71 1015.98 1016.29 1016.64 1017.02 1017.43 1017.83 1018.22 1018.58 1018.91 1019.19
1016.67 1016.50 1016.36 1016.25 1016.15 1016.04 1015.90 1015.70 1015.46 1015.19 1014.91 1014.66 1014.44 1014.28 1014.15 1014.04 1013.94 1013.80 1013.63 1013.44 1013.23 1013.05 1012.93 1012.90 1012.96 1013.12 1013.37 1013.68 1014.02 1014.36 1014.71 1015.05 1015.39 1015.75 1016.14 1016.55 1016.98 1017.43 1017.87 1018.29 1018.69 1019.05 1019.39
1016.59 1016.44 1016.32 1016.21 1016.10 1015.96 1015.77 1015.52 1015.23 1014.92 1014.60 1014.33 1014.11 1013.95 1013.84 1013.75 1013.67 1013.55 1013.38 1013.17 1012.93 1012.70 1012.51 1012.39 1012.37 1012.47 1012.67 1012.97 1013.33 1013.73 1014.16 1014.61 1015.06 1015.53 1016.00 1016.48 1016.97 1017.45 1017.91 1018.36 1018.78 1019.18 1019.57
1016.44 1016.32 1016.21 1016.10 1015.98 1015.81 1015.58 1015.29 1014.95 1014.59 1014.24 1013.94 1013.70 1013.53 1013.43 1013.36 1013.29 1013.18 1013.02 1012.81 1012.54 1012.26 1012.01 1011.82 1011.73 1011.77 1011.94 1012.23 1012.62 1013.09 1013.62 1014.18 1014.76 1015.34 1015.91 1016.46 1016.99 1017.50 1017.98 1018.43 1018.87 1019.30 1019.72
1016.23 1016.13 1016.03 1015.93 1015.80 1015.61 1015.36 1015.04 1014.66 1014.26 1013.87 1013.53 1013.26 1013.07 1012.95 1012.87 1012.81 1012.71 1012.56 1012.35 1012.07 1011.77 1011.48 1011.25 1011.11 1011.11 1011.25 1011.55 1011.98 1012.52 1013.15 1013.82 1014.52 1015.21 1015.87 1016.49 1017.06 1017.58 1018.06 1018.51 1018.94 1019.38 1019.82
1015.99 1015.91 1015.82 1015.73 1015.60 1015.41 1015.15 1014.82 1014.42 1013.99 1013.56 1013.17 1012.84 1012.60 1012.44 1012.33 1012.25 1012.16 1012.02 1011.82 1011.56 1011.26 1010.97 1010.72 1010.56 1010.54 1010.67 1010.98 1011.45 1012.06 1012.77 1013.56 1014.36 1015.16 1015.90 1016.58 1017.18 1017.70 1018.17 1018.60 1019.01 1019.44 1019.89
1015.75 1015.67 1015.60 1015.52 1015.40 1015.23 1014.98 1014.65 1014.24 1013.78 1013.31 1012.85 1012.46 1012.14 1011.90 1011.74 1011.62 1011.51 1011.39 1011.22 1011.00 1010.74 1010.48 1010.25 1010.10 1010.08 1010.23 1010.55 1011.06 1011.72 1012.51 1013.38 1014.28 1015.16 1015.98 1016.71 1017.34 1017.86 1018.31 1018.71 1019.10 1019.49 1019.93
1015.52 1015.45 1015.39 1015.31 1015.22 1015.07 1014.84 1014.53 1014.12 1013.64 1013.11 1012.58 1012.09 1011.67 1011.33 1011.09 1010.91 1010.78 1010.67 1010.54 1010.38 1010.20 1010.00 1009.83 1009.73 1009.74 1009.91 1010.26 1010.79 1011.50 1012.35 1013.29 1014.27 1015.22 1016.10 1016.88 1017.53 1018.06 1018.49 1018.86 1019.21 1019.57 1019.98
1015.30 1015.24 1015.17 1015.11 1015.03 1014.91 1014.71 1014.41 1014.01 1013.50 1012.92 1012.31 1011.71 1011.17 1010.71 1010.36 1010.12 1009.96 1009.86 1009.78 1009.70 1009.62 1009.52 1009.44 1009.42 1009.49 1009.70 1010.07 1010.64 1011.38 1012.26 1013.25 1014.29 1015.30 1016.24 1017.06 1017.74 1018.28 1018.71 1019.06 1019.37 1019.69 1020.06
1015.09 1015.01 1014.95 1014.89 1014.82 1014.72 1014.54 1014.26 1013.86 1013.33 1012.70 1012.00 1011.29 1010.62 1010.03 1009.57 1009.25 1009.05 1008.96 1008.94 1008.96 1008.99 1009.02 1009.06 1009.14 1009.29 1009.55 1009.97 1010.56 1011.32 1012.24 1013.26 1014.33 1015.39 1016.37 1017.24 1017.95 1018.52 1018.95 1019.29 1019.58 1019.87 1020.19
1014.85 1014.77 1014.70 1014.63 1014.56 1014.47 1014.31 1014.04 1013.64 1013.10 1012.41 1011.63 1010.81 1010.02 1009.31 1008.74 1008.34 1008.11 1008.03 1008.07 1008.18 1008.33 1008.50 1008.67 1008.87 1009.12 1009.46 1009.93 1010.55 1011.33 1012.25 1013.29 1014.38 1015.47 1016.49 1017.39 1018.14 1018.74 1019.20 1019.54 1019.82 1020.08 1020.36
1014.59 1014.51 1014.41 1014.33 1014.26 1014.16 1014.01 1013.75 1013.35 1012.79 1012.07 1011.22 1010.32 1009.42 1008.62 1007.95 1007.47 1007.20 1007.13 1007.22 1007.42 1007.69 1007.99 1008.30 1008.63 1008.98 1009.41 1009.93 1010.58 1011.37 1012.30 1013.33 1014.43 1015.52 1016.56 1017.49 1018.28 1018.91 1019.39 1019.76 1020.05 1020.30 1020.56
1014.31 1014.22 1014.11 1014.02 1013.93 1013.82 1013.67 1013.41 1013.02 1012.45 1011.72 1010.84 1009.88 1008.92 1008.03 1007.29 1006.76 1006.45 1006.38 1006.49 1006.76 1007.13 1007.54 1007.98 1008.42 1008.88 1009.39 1009.97 1010.65 1011.44 1012.36 1013.38 1014.45 1015.54 1016.57 1017.51 1018.31 1018.98 1019.50 1019.90 1020.21 1020.47 1020.73
1014.02 1013.93 1013.82 1013.70 1013.60 1013.49 1013.34 1013.09 1012.71 1012.16 1011.43 1010.56 1009.58 1008.59 1007.66 1006.87 1006.29 1005.95 1005.86 1005.99 1006.29 1006.72 1007.22 1007.75 1008.29 1008.84 1009.41 1010.04 1010.74 1011.54 1012.44 1013.42 1014.45 1015.49 1016.50 1017.42 1018.23 1018.91 1019.47 1019.90 1020.25 1020.54 1020.81
1013.71 1013.64 1013.53 1013.41 1013.31 1013.20 1013.06 1012.83 1012.49 1011.98 1011.29 1010.45 1009.50 1008.51 1007.58 1006.77 1006.15 1005.77 1005.65 1005.76 1006.07 1006.51 1007.05 1007.63 1008.23 1008.84 1009.47 1010.13 1010.85 1011.63 1012.50 1013.42 1014.39 1015.38 1016.33 1017.22 1018.01 1018.70 1019.28 1019.75 1020.15 1020.48 1020.78
Thickness
5706 5707 5706 5706 5707 5707 5708 5708 5709 5709 5710 5710 5710 5710 5710 5711 5711 5711 5712 5712 5712 5713 5713 5714 5713 5713 5714 5714 5713 5713 5713 5714 5714 5714 5714 5714 5714 5715 5715 5715 5715 5714 5714
5704 5703 5702 5702 5703 5703 5704 5704 5705 5705 5706 5706 5706 5706 5707 5707 5708 5708 5709 5709 5709 5710 5710 5710 5710 5710 5710 5710 5710 5710 5710 5710 5710 5711 5711 5711 5711 5712 5712 5712 5712 5711 5711
5700 5699 5698 5698 5698 5698 5699 5700 5700 5701 5701 5702 5702 5703 5703 5703 5704 5705 5705 5705 5706 5706 5706 5707 5707 5707 5707 5707 5707 5707 5707 5707 5708 5708 5709 5708 5708 5708 5709 5708 5708 5708 5708
5695 5694 5693 5692 5692 5693 5694 5694 5695 5696 5696 5697 5697 5698 5699 5699 5700 5701 5701 5701 5702 5702 5702 5702 5703 5703 5703 5703 5703 5703 5704 5704 5705 5706 5706 5706 5706 5705 5705 5705 5705 5705 5705
5689 5688 5687 5687 5687 5687 5688 5689 5690 5690 5691 5692 5692 5693 5694 5695 5696 5696 5697 5697 5697 5697 5698 5698 5698 5699 5699 5699 5699 5699 5700 5701 5702 5703 5703 5703 5703 5702 5702 5702 5702 5701 5701
5683 5682 5681 5681 5681 5681 5682 5682 5683 5684 5685 5686 5687 5687 5688 5690 5691 5691 5692 5692 5693 5693 5693 5694 5694 5694 5695 5695 5695 5695 5696 5697 5698 5699 5700 5700 5699 5699 5699 5698 5698 5698 5698
5676 5676 5675 5675 5675 5675 5675 5676 5677 5678 5679 5680 5681 5682 5683 5684 5685 5686 5687 5687 5688 5688 5688 5689 5689 5690 5690 5690 5691 5691 5692 5693 5694 5695 5696 5695 5695 5695 5695 5694 5694 5694 5694
5670 5669 5668 5668 5669 5669 5669 5670 5670 5671 5672 5673 5674 5675 5677 5678 5679 5680 5681 5681 5682 5683 5683 5683 5684 5684 5685 5686 5686 5687 5688 5689 5690 5691 5691 5691 5690 5690 5690 5690 5690 5690 5690
5664 5663 5662 5662 5662 5663 5663 5664 5664 5664 5665 5666 5667 5669 5670 5671 5672 5673 5674 5675 5676 5677 5677 5677 5678 5679 5680 5680 5681 5682 5683 5684 5685 5686 5686 5686 5686 5686 5686 5686 5685 5685 5685
5656 5656 5655 5656 5656 5657 5657 5657 5657 5658 5658 5660 5660 5661 5663 5664 5665 5666 5668 5668 5669 5670 5670 5671 5672 5673 5674 5675 5676 5677 5678 5679 5680 5681 5681 5681 5681 5681 5681 5681 5680 5680 5680
5648 5648 5648 5649 5649 5650 5650 5651 5651 5652 5652 5653 5654 5655 5656 5657 5658 5659 5660 5661 5662 5663 5663 5664 5666 5667 5667 5668 5670 5671 5672 5673 5674 5675 5675 5675 5676 5676 5675 5675 5675 5675 5675
5640 5641 5641 5642 5642 5643 5644 5645 5645 5645 5646 5646 5647 5648 5649 5650 5651 5652 5653 5654 5654 5655 5656 5658 5659 5660 5661 5662 5664 5665 5666 5668 5669 5669 5669 5670 5670 5670 5670 5669 5669 5669 5669
5635 5635 5634 5635 5636 5636 5637 5638 5638 5638 5639 5639 5640 5641 5642 5643 5643 5643 5645 5646 5646 5648 5649 5650 5653 5654 5655 5656 5658 5659 5661 5662 5663 5663 5663 5664 5664 5664 5664 5664 5663 5663 5663
5630 5629 5628 5628 5628 5629 5629 5630 5631 5632 5632 5632 5632 5633 5634 5635 5635 5636 5637 5638 5639 5640 5642 5643 5645 5647 5649 5650 5652 5653 5654 5655 5656 5657 5656 5657 5657 5658 5658 5658 5657 5657 5657
5624 5623 5622 5622 5622 5622 5622 5622 5623 5623 5624 5624 5624 5624 5625 5626 5627 5628 5628 5630 5631 5632 5634 5636 5638 5640 5642 5644 5645 5646 5647 5648 5650 5649 5649 5650 5650 5651 5651 5651 5651 5650 5650
5619 5618 5617 5616 5616 5615 5615 5614 5614 5615 5615 5615 5615 5615 5615 5616 5617 5618 5619 5621 5623 5625 5626 5628 5631 5632 5635 5636 5637 5638 5640 5641 5642 5642 5642 5642 5643 5643 5644 5644 5644 5644 5643
5614 5612 5611 5610 5609 5608 5607 5607 5607 5606 5606 5606 5606 5605 5606 5606 5606 5608 5609 5611 5614 5617 5619 5620 5622 5624 5625 5627 5629 5630 5631 5633 5634 5634 5634 5634 5634 5635 5636 5636 5636 5636 5636
5608 5606 5605 5604 5602 5601 5600 5600 5599 5598 5598 5597 5596 5596 5596 5596 5597 5598 5600 5601 5605 5608 5610 5611 5613 5614 5615 5617 5619 5621 5622 5623 5624 5625 5626 5626 5626 5626 5626 5627 5628 5628 5629
5603 5601 5599 5598 5596 5595 5594 5594 5592 5591 5589 5588 5587 5587 5587 5588 5588 5589 5591 5593 5596 5599 5600 5602 5603 5605 5606 5607 5609 5611 5613 5614 5615 5615 5616 5616 5617 5617 5617 5618 5619 5619 5620
5598 5595 5593 5592 5590 5589 5588 5587 5586 5584 5582 5581 5580 5579 5580 5580 5581 5582 5583 5585 5587 5589 5591 5593 5594 5595 5596 5598 5600 5601 5602 5604 5605 5606 5606 5606 5607 5607 5608 5608 5609 5610 5611
5592 5589 5587 5586 5585 5583 5581 5580 5579 5577 5576 5574 5573 5573 5572 5572 5573 5574 5575 5577 5579 5580 5581 5583 5585 5585 5585 5588 5588 5588 5590 5592 5594 5596 5596 5597 5597 5598 5598 5599 5599 5600 5601
5586 5584 5582 5581 5579 5578 5576 5574 5572 5571 5570 5568 5567 5566 5565 5565 5565 5566 5568 5569 5571 5572 5573 5575 5577 5575 5575 5578 5579 5578 5577 5578 5582 5585 5586 5587 5587 5588 5589 5589 5590 5590 5591
5580 5578 5577 5576 5574 5573 5570 5568 5567 5565 5563 5561 5560 5559 5559 5559 5558 5559 5561 5562 5563 5565 5565 5566 5567 5568 5567 5568 5571 5571 5570 5570 5569 5572 5575 5577 5578 5578 5579 5580 5581 5581 5582
5575 5573 5571 5570 5569 5568 5566 5563 5560 5559 5557 5556 5555 5554 5553 5553 5553 5553 5554 5555 5556 5557 5558 5558 5559 5560 5560 5560 5561 5562 5564 5564 5562 5561 5563 5565 5567 5568 5569 5570 5571 5572 5572
5570 5568 5566 5565 5564 5562 5561 5559 5556 5554 5552 5551 5549 5548 5548 5547 5547 5547 5548 5548 5549 5550 5550 5551 5551 5551 5552 5552 5552 5553 5554 5555 5556 5554 5552 5553 5555 5558 5560 5561 5561 5562 5562
5564 5562 5560 5559 5558 5557 5556 5554 5551 5549 5547 5545 5543 5541 5541 5541 5541 5541 5541 5542 5542 5542 5542 5543 5543 5543 5543 5543 5544 5545 5545 5546 5546 5546 5545 5544 5544 5547 5550 5551 5552 5553 5553